Regional Weather Roundup
Issued by NWS

Home | Current Version | Previous Version | Graphics & Text | Print | Product List | Glossary On
Versions: 1 2 3 4 5 6 7 8 9 10 11 12 13 14 15 16 17 18 19 20 21 22 23 24 25 26 27 28 29 30 31 32 33 34 35 36 37 38 39 40 41 42 43 44 45 46 47 48 49 50
000
ASUS43 KFSD 272302
RWRSD

WEATHER ROUNDUP FOR SOUTH DAKOTA
NATIONAL WEATHER SERVICE SIOUX FALLS SD
500 PM CST THU NOV 27 2014

NOTE: "FAIR" INDICATES FEW OR NO CLOUDS BELOW 12,000 FEET WITH NO
SIGNIFICANT WEATHER AND/OR OBSTRUCTIONS TO VISIBILITY.


SDZ001>005-009-010-012>017-280000-
NORTHWEST AND NORTH CENTRAL SOUTH DAKOTA

CITY           SKY/WX    TMP DP  RH WIND       PRES   REMARKS
BUFFALO          N/A     30  23  75 S13       29.78F WCI  20
FAITH            N/A     26  18  71 S15       29.90F WCI  14
MOBRIDGE       CLOUDY    17  11  77 SE22      29.98F WCI   0
$$

SDZ012>016-024>037-041>051-057-063-072>074-280000-
SOUTHWEST AND SOUTH CENTRAL SOUTH DAKOTA

CITY           SKY/WX    TMP DP  RH WIND       PRES   REMARKS
RAPID CTY ARPT CLEAR     34  27  75 E3        29.88F
PIERRE         CLOUDY    24  15  68 SE14      30.00F WCI  12
CUSTER         CLEAR     47  24  40 CALM      29.95R
ELLSWORTH AFB  PTCLDY    36  29  75 S1        29.87F
PHILIP         PTCLDY    33  22  63 E9        29.93F WCI  25
PINE RIDGE     MOCLDY    44  32  62 CALM      29.93F
WINNER         FAIR      35  19  52 SE8       30.00F WCI  29
$$

SDZ004>011-016>023-039-040-280000-
NORTHEAST SOUTH DAKOTA

CITY           SKY/WX    TMP DP  RH WIND       PRES   REMARKS
ABERDEEN       CLOUDY    13   5  70 SE13      30.19F WCI  -2
WATERTOWN      CLOUDY    10   3  73 SE12      30.17F WCI  -5
SISSETON         N/A      5  -3  69 S12       30.26F WCI -11
$$

SDZ017-020-022-023-036>040-048>070-280000-
SOUTHEAST SOUTH DAKOTA

CITY           SKY/WX    TMP DP  RH WIND       PRES   REMARKS
SIOUX FALLS    CLOUDY    11   2  67 SE13      30.25F WCI  -4
HURON          CLOUDY    13   5  70 SE14G23   30.18F WCI  -2
MITCHELL       CLOUDY    15   8  73 SE15      30.19F WCI   0
YANKTON        PTCLDY    19   9  63 SE14      30.25F WCI   6
$$

ABBREVIATIONS USED IN REMARKS
   TC - TEMPERATURE IN CELSIUS
  WCI - WIND CHILL INDEX
   HX - HEAT INDEX
  VSB - VISIBILITY




USA.gov is the U.S. government's official web portal to all federal, state and local government web resources and services.